Home > Time Zones > World Clock > Weather > India > Buxar > Past weeks

Flag for India Weather past 2 weeks in Buxar, Bihar, India

Now
86 °F

Partly cloudy.


Feels Like: 102 °F
Forecast: 79 / 96 °F
Wind: 3 mph from West

Location: Lucknow / Amausi

Current Time: Aug 31, 2015 at 11:32:48 PM

Latest Report: Aug 31, 2015 at 10:00 PM


Visibility: 3 mi

Pressure: 29.59 "Hg

Humidity: 84%

Dew point: 81 °F

Location of BuxarLocation

Historic Weather in Buxar — Graph

°F

Buxar temperature yesterday

Maximum temperature yesterday: 99 °F (at 1:00 PM)
Minimum temperature yesterday: 82 °F (at 3:00 AM)
Average temperature yesterday: 91 °F

Past Weeks' High & Low Weather Summary

 TemperatureHumidityPressure
High99 °F (Aug 26, 1:00 PM)100% (Aug 17, 3:00 AM)29.68 "Hg (Aug 17, 3:00 AM)
Low75 °F (Aug 22, 8:30 AM)50% (Aug 25, 2:30 PM)29.50 "Hg (Aug 22, 5:00 PM)
Average87 °F81%29.59 "Hg
* Reported Aug 16 10:00 PM — Aug 31 10:00 PM, Buxar, Weather by CustomWeather, © 2015

Note: Actual official high and low records may vary slightly from our data, if they occured in-between our weather recording intervals... More about our weather records

Advertising

Buxar weather history for previous 24 hours

 ConditionsComfort  
Time TempWeatherWind HumidityBarometerVisibility
10:00 PM
Mon, Aug 31
86 °FPartly cloudy.3 mph84%29.59 "Hg3 mi
8:30 PM88 °FPassing clouds.3 mph79%29.59 "Hg3 mi
8:00 PM88 °FPassing clouds.5 mph79%29.56 "Hg3 mi
7:30 PM88 °FPassing clouds.3 mph79%29.56 "Hg3 mi
7:00 PM90 °FPassing clouds.2 mph75%29.53 "Hg3 mi
6:30 PM90 °FScattered clouds.2 mph75%29.53 "Hg3 mi
6:00 PM91 °FScattered clouds.3 mph71%29.53 "Hg3 mi
5:00 PM95 °FScattered clouds.9 mph63%29.53 "Hg3 mi
4:30 PM95 °FScattered clouds.9 mph63%29.53 "Hg3 mi
4:00 PM95 °FScattered clouds.8 mph63%29.53 "Hg3 mi
3:30 PM99 °FScattered clouds.12 mph57%29.53 "Hg3 mi
3:00 PM99 °FScattered clouds.7 mph57%29.53 "Hg3 mi
2:30 PM99 °FScattered clouds.9 mph60%29.56 "Hg3 mi
1:30 PM99 °FScattered clouds.13 mph60%29.59 "Hg3 mi
1:00 PM97 °FScattered clouds.7 mph63%29.62 "Hg3 mi
12:30 PM97 °FScattered clouds.10 mph63%29.62 "Hg3 mi
12:00 PM97 °FScattered clouds.12 mph63%29.62 "Hg3 mi
11:30 AM95 °FScattered clouds.10 mph67%29.62 "Hg3 mi
11:00 AM95 °FScattered clouds.10 mph67%29.62 "Hg3 mi
10:00 AM93 °FScattered clouds.9 mph71%29.62 "Hg3 mi
9:30 AM91 °FScattered clouds.8 mph75%29.62 "Hg3 mi
9:00 AM90 °FScattered clouds.9 mph75%29.62 "Hg2 mi
8:30 AM88 °FScattered clouds.8 mph79%29.62 "Hg2 mi
8:00 AM86 °FScattered clouds.7 mph79%29.62 "Hg2 mi
7:00 AM82 °FBroken clouds.2 mph89%29.59 "Hg2 mi
6:30 AM82 °FBroken clouds.No wind89%29.59 "Hg2 mi
6:00 AM82 °FPassing clouds.No wind89%29.59 "Hg2 mi
5:30 AM82 °FHaze.No wind89%29.56 "Hg2 mi
5:00 AM82 °FPassing clouds.No wind89%29.56 "Hg2 mi
4:00 AM84 °FPassing clouds.No wind84%29.56 "Hg2 mi
3:00 AM84 °FPartly cloudy.2 mph84%29.56 "Hg2 mi
2:00 AM86 °FPartly cloudy.2 mph84%29.59 "Hg2 mi
1:00 AM86 °FPartly cloudy.7 mph84%29.59 "Hg2 mi
11:00 PM
Sun, Aug 30
88 °FPassing clouds.No wind84%29.62 "Hg2 mi
Weather by CustomWeather, © 2015

See weather overviewHow to use our weather pages